Location: Castiglione Fibocchi
(43.5333°N, 11.7667°E)
Time: 17:57:33
(UTC+00:00)

USA 238 - Pass Details

Date: 15 August 2020
Orbit: 1006 x 1206 km, 63.4° (Epoch: 13 September)

Event Time Altitude Azimuth Distance (km) Brightness Sun altitude
Rises 03:12:43 0° 324° (NW) 3,943 6.6 -11.5°
Reaches altitude 10° 03:15:23 10° 327° (NNW) 3,010 6.1 -11.0°
Maximum altitude 03:22:34 65° 49° (NE) 1,270 4.4 -9.9°
Drops below altitude 10° 03:30:01 10° 131° (SE) 3,118 6.4 -8.8°
Sets 03:32:49 0° 134° (SE) 4,091 7.0 -8.3°
